Location: Unspecified
(0.0000°N, 0.0000°E)
Time: 14:21:35
(UTC+00:00)

STARLINK-36976 - Pass Details

Date: 04 March 2026
Orbit: 263 x 264 km, 53.2° (Epoch: 6 March)

Event Time Altitude Azimuth Distance (km) Brightness Sun altitude
Rises 19:00:58 0° 218° (SW) 1,825 6.0 -12.3°
Reaches altitude 10° 19:02:51 10° 221° (SW) 1,027 4.7 -12.7°
Maximum altitude 19:05:05 63° 303° (WNW) 287 1.4 -13.3°
Enters shadow 19:06:25 21° 22° (NNE) 647 2.7 -13.6°
